N678MF KSYR-

Flight info

Callsign N678MF
Flight time N/A
Altitude VFR
Route
Aircraft C404/L-VGD/C

Departure

Time 2026-04-20 18:20
Airport Syracuse Hancock International Airport (KSYR)

Arrival

Time N/A
Airport -
Time Latitude Longitude Altitude Speed Heading
2026-04-20 18:11 43.10538 -76.11439 420 ft 0 kts 297°
2026-04-20 18:14 43.10542 -76.11444 415 ft 2 kts 341°
2026-04-20 18:14 43.10567 -76.11396 420 ft 12 kts 56°
2026-04-20 18:15 43.10628 -76.11288 416 ft 16 kts 83°
2026-04-20 18:15 43.10633 -76.11112 420 ft 22 kts 86°
2026-04-20 18:15 43.10641 -76.10879 415 ft 27 kts 87°
2026-04-20 18:15 43.10649 -76.10604 420 ft 30 kts 87°
2026-04-20 18:16 43.10660 -76.10317 420 ft 31 kts 87°
2026-04-20 18:16 43.10669 -76.10026 420 ft 31 kts 87°
2026-04-20 18:16 43.10679 -76.09726 420 ft 32 kts 87°
2026-04-20 18:16 43.10680 -76.09486 420 ft 20 kts 121°
2026-04-20 18:17 43.10645 -76.09355 419 ft 13 kts 48°
2026-04-20 18:17 43.10707 -76.09279 426 ft 12 kts 26°
2026-04-20 18:17 43.10801 -76.09262 423 ft 15 kts 357°
2026-04-20 18:17 43.10844 -76.09265 423 ft 0 kts 357°
2026-04-20 18:18 43.10874 -76.09266 415 ft 9 kts 360°
2026-04-20 18:18 43.10928 -76.09322 422 ft 15 kts 271°
2026-04-20 18:19 43.10921 -76.09612 424 ft 54 kts 268°
2026-04-20 18:19 43.10897 -76.10355 421 ft 101 kts 267°
2026-04-20 18:19 43.10849 -76.11457 580 ft 127 kts 272°
2026-04-20 18:19 43.10828 -76.12712 922 ft 136 kts 273°
2026-04-20 18:20 43.10762 -76.14065 1240 ft 148 kts 265°
2026-04-20 18:20 43.10586 -76.15453 1681 ft 150 kts 265°
2026-04-20 18:20 43.10396 -76.16851 2140 ft 148 kts 264°
2026-04-20 18:20 43.10205 -76.18233 2577 ft 146 kts 264°
2026-04-20 18:21 43.10073 -76.19183 2549 ft 161 kts 264°
2026-04-20 18:21 43.09822 -76.21303 2526 ft 175 kts 265°
2026-04-20 18:21 43.09625 -76.22970 2526 ft 178 kts 265°
2026-04-20 18:21 43.09477 -76.24082 2524 ft 179 kts 265°
2026-04-20 18:22 43.09264 -76.25766 2524 ft 180 kts 264°
2026-04-20 18:22 43.09065 -76.27423 2665 ft 175 kts 265°
2026-04-20 18:22 43.08873 -76.29034 2944 ft 168 kts 264°
2026-04-20 18:22 43.08693 -76.30603 3229 ft 165 kts 265°
2026-04-20 18:23 43.08501 -76.32140 3496 ft 163 kts 264°
2026-04-20 18:23 43.08323 -76.33679 3722 ft 164 kts 265°
2026-04-20 18:23 43.07968 -76.35139 3948 ft 172 kts 238°
2026-04-20 18:23 43.07140 -76.36337 4191 ft 173 kts 230°
2026-04-20 18:24 43.06102 -76.37232 4431 ft 180 kts 209°
2026-04-20 18:24 43.04936 -76.37934 4510 ft 190 kts 210°
2026-04-20 18:24 43.03711 -76.38660 4512 ft 191 kts 208°
2026-04-20 18:24 43.02487 -76.39407 4510 ft 193 kts 208°
2026-04-20 18:25 43.01261 -76.40169 4508 ft 194 kts 210°
2026-04-20 18:25 43.00026 -76.40924 4509 ft 195 kts 210°
2026-04-20 18:25 42.98798 -76.41669 4508 ft 196 kts 210°
2026-04-20 18:25 42.97544 -76.42422 4507 ft 197 kts 210°
2026-04-20 18:26 42.96292 -76.43191 4504 ft 197 kts 208°
2026-04-20 18:26 42.95051 -76.43982 4503 ft 196 kts 210°
2026-04-20 18:26 42.93836 -76.44805 4486 ft 192 kts 222°
2026-04-20 18:26 42.92915 -76.46075 4488 ft 187 kts 234°
2026-04-20 18:27 42.92078 -76.47411 4489 ft 187 kts 236°
2026-04-20 18:27 42.91234 -76.48771 4489 ft 187 kts 234°
2026-04-20 18:27 42.90446 -76.50178 4478 ft 183 kts 249°
2026-04-20 18:27 42.90384 -76.51793 4489 ft 173 kts 293°
2026-04-20 18:28 42.91098 -76.53100 4496 ft 173 kts 313°
2026-04-20 18:28 42.91935 -76.54294 4500 ft 174 kts 314°
2026-04-20 18:28 42.92774 -76.55480 4502 ft 173 kts 314°
2026-04-20 18:28 42.93605 -76.56655 4504 ft 172 kts 314°
2026-04-20 18:29 42.94435 -76.57827 4506 ft 171 kts 314°
2026-04-20 18:29 42.95252 -76.58980 4505 ft 170 kts 314°
2026-04-20 18:29 42.96078 -76.60146 4502 ft 170 kts 314°
2026-04-20 18:29 42.96900 -76.61309 4500 ft 170 kts 314°
2026-04-20 18:30 42.97589 -76.62596 4502 ft 172 kts 292°
2026-04-20 18:30 42.97767 -76.64226 4508 ft 174 kts 279°
2026-04-20 18:30 42.98015 -76.65843 4513 ft 174 kts 288°
2026-04-20 18:30 42.98370 -76.67424 4519 ft 174 kts 290°
2026-04-20 18:31 42.98736 -76.68999 4518 ft 175 kts 290°
2026-04-20 18:31 42.99102 -76.70582 4519 ft 174 kts 290°
2026-04-20 18:31 42.99466 -76.72164 4518 ft 174 kts 290°
2026-04-20 18:31 42.99828 -76.73740 4516 ft 174 kts 289°
2026-04-20 18:32 43.00188 -76.75309 4516 ft 175 kts 289°
2026-04-20 18:32 43.00553 -76.76899 4518 ft 175 kts 289°
2026-04-20 18:32 43.00917 -76.78484 4518 ft 174 kts 290°
2026-04-20 18:32 43.01276 -76.80055 4528 ft 173 kts 290°
2026-04-20 18:33 43.01635 -76.81621 4530 ft 172 kts 290°
2026-04-20 18:33 43.01993 -76.83182 4530 ft 172 kts 290°
2026-04-20 18:33 43.02350 -76.84747 4529 ft 173 kts 289°
2026-04-20 18:33 43.02707 -76.86311 4526 ft 174 kts 290°
2026-04-20 18:34 43.03068 -76.87888 4527 ft 173 kts 290°
2026-04-20 18:34 43.03423 -76.89445 4507 ft 174 kts 289°
2026-04-20 18:34 43.03794 -76.91069 4349 ft 183 kts 289°
2026-04-20 18:34 43.04179 -76.92753 4192 ft 186 kts 289°
2026-04-20 18:35 43.04563 -76.94442 4045 ft 188 kts 289°
2026-04-20 18:35 43.04951 -76.96150 3899 ft 187 kts 289°
2026-04-20 18:35 43.05336 -76.97851 3747 ft 186 kts 290°
2026-04-20 18:35 43.05720 -76.99535 3599 ft 185 kts 289°
2026-04-20 18:36 43.06099 -77.01207 3420 ft 187 kts 290°
2026-04-20 18:36 43.06490 -77.02902 3255 ft 187 kts 290°
2026-04-20 18:36 43.06878 -77.04610 3101 ft 187 kts 290°
2026-04-20 18:36 43.07261 -77.06306 2943 ft 186 kts 290°
2026-04-20 18:37 43.07644 -77.08003 2799 ft 187 kts 290°
2026-04-20 18:37 43.08024 -77.09682 2652 ft 187 kts 290°
2026-04-20 18:37 43.08408 -77.11387 2517 ft 187 kts 290°
2026-04-20 18:37 43.08785 -77.13057 2513 ft 181 kts 290°
2026-04-20 18:38 43.09151 -77.14684 2516 ft 176 kts 290°
2026-04-20 18:38 43.09511 -77.16277 2514 ft 174 kts 290°
2026-04-20 18:38 43.09868 -77.17862 2514 ft 174 kts 290°
2026-04-20 18:38 43.10218 -77.19421 2514 ft 173 kts 290°
2026-04-20 18:39 43.10575 -77.21003 2516 ft 174 kts 289°
2026-04-20 18:39 43.10925 -77.22596 2513 ft 175 kts 289°
2026-04-20 18:39 43.11279 -77.24181 2519 ft 173 kts 290°
2026-04-20 18:39 43.11639 -77.25759 2518 ft 174 kts 290°
2026-04-20 18:40 43.11993 -77.27332 2516 ft 172 kts 289°
2026-04-20 18:40 43.12328 -77.28879 2518 ft 171 kts 290°
2026-04-20 18:40 43.12685 -77.30429 2523 ft 171 kts 290°
2026-04-20 18:40 43.13046 -77.31998 2526 ft 173 kts 289°
2026-04-20 18:41 43.13227 -77.33641 2524 ft 176 kts 276°
2026-04-20 18:41 43.13225 -77.35320 2522 ft 176 kts 274°
2026-04-20 18:41 43.13194 -77.36988 2523 ft 174 kts 273°
2026-04-20 18:41 43.13139 -77.38645 2525 ft 174 kts 272°
2026-04-20 18:42 43.13089 -77.40288 2516 ft 176 kts 271°
2026-04-20 18:42 43.13044 -77.41977 2519 ft 179 kts 271°
2026-04-20 18:42 43.12993 -77.43691 2518 ft 180 kts 271°
2026-04-20 18:42 43.12941 -77.45404 2514 ft 177 kts 272°
2026-04-20 18:43 43.12890 -77.47064 2507 ft 171 kts 271°
2026-04-20 18:43 43.12841 -77.48671 2500 ft 164 kts 271°
2026-04-20 18:43 43.12799 -77.50162 2498 ft 156 kts 270°
2026-04-20 18:43 43.12752 -77.51630 2497 ft 153 kts 271°
2026-04-20 18:44 43.12713 -77.53077 2494 ft 151 kts 271°
2026-04-20 18:44 43.12668 -77.54513 2462 ft 151 kts 271°
2026-04-20 18:44 43.12608 -77.55953 2322 ft 152 kts 270°
2026-04-20 18:44 43.12550 -77.57411 2086 ft 153 kts 271°
2026-04-20 18:45 43.12543 -77.58818 1847 ft 145 kts 272°
2026-04-20 18:45 43.12505 -77.60144 1644 ft 128 kts 271°
2026-04-20 18:45 43.12466 -77.61304 1419 ft 116 kts 272°
2026-04-20 18:45 43.12436 -77.62251 1198 ft 88 kts 272°
2026-04-20 18:46 43.12397 -77.63060 1028 ft 83 kts 274°
2026-04-20 18:46 43.12385 -77.63852 875 ft 83 kts 277°
2026-04-20 18:46 43.12368 -77.64642 727 ft 83 kts 277°
2026-04-20 18:46 43.12348 -77.65424 599 ft 83 kts 279°
2026-04-20 18:47 43.12332 -77.66115 547 ft 55 kts 271°
2026-04-20 18:47 43.12317 -77.66470 549 ft 24 kts 265°
2026-04-20 18:47 43.12223 -77.66542 541 ft 20 kts 181°
2026-04-20 18:47 43.12097 -77.66633 538 ft 22 kts 218°
2026-04-20 18:48 43.11972 -77.66766 538 ft 23 kts 219°
2026-04-20 18:48 43.11861 -77.66877 538 ft 9 kts 183°
2026-04-20 18:48 43.11809 -77.66748 546 ft 23 kts 108°
2026-04-20 18:48 43.11714 -77.66598 538 ft 20 kts 149°
2026-04-20 18:49 43.11638 -77.66575 538 ft 7 kts 234°
2026-04-20 18:49 43.11641 -77.66590 538 ft 0 kts 355°